CZ-6A DEB, 60792

Orbit data source: Space-Track

CZ-6A DEB, 60792 is space debris in LEO originally from a launch on Tue, 06 Aug 2024 UTC launched from the Taiyaun Space Center, China (TSC). Debris objects in space refer to the collection of defunct objects orbiting the Earth. Examples of debris include non-operational satellites, rocket bodies, and fragments generated from explosions, collisions, or faulty payload assembly.

Loading next visibility...
Identifier
60792, 2024-140FT
Orbit
LEO
Country
Flag of CNCN / PRC
Related business
Manufacturer
SAST
Mission
Spacecraft
Bus & Motor
Unknown
Mass
Unknown
Launch date (UTC)
2024-08-06 (1 year ago)
Launch vehicle
Unknown
Launch site
Taiyaun Space Center, China (TSC)
Object type
Payload
Rocket body
Debris
Shape & HBR
Unknown shape, 0.3 m
Radar Cross Section
Medium (>0.1 m² and <1 m²)

Expand to show TLE details & history
Last TLE update: 19 hours ago

TLE from 19 hours ago
0 CZ-6A DEB
1 60792U 24140FT  25312.74142304  .00003312  00000-0  42116-3 0  9999
2 60792  89.0630 298.9964 0173762 242.2229 116.1280 14.71260194 66633
Epoch: 2025-11-08T17:47Z
TLE epoch observation values (Epoch: 2025-11-08T17:47:38.950Z)
Latitude
-0.0001°
Longitude
-16.08258°
Altitude
715.713 km
Speed
7.468 km/s
True Right ascension
19h 55m 59s
True Declination
0° 00' 00"
Sunlit
Object was in daylight at epoch
Visualization orbit readout
Latitude
Unknown
Longitude
Unknown
Altitude
Unknown
Speed
Unknown
Apparent Right ascension
Unknown
Apparent Declination
Unknown
Sunlit
N/A
Visualization observer readout
Local Sidereal Time
08:54:41
Azimuth
Unknown
Elevation
Unknown
Doppler factor
Unknown
Orbital elements
Apogee altitude
776.115 km
Perigee altitude
531.734 km
Semi-major axis
7,032.061 km
Eccentricity
0.01738
Inclination
89.063°
RAAN
298.9964°
Arg. of periapsis
242.2229°
True anomaly
117.89847°
Mean anomaly
116.128°
Eccentric anomaly
117.01495°
Mean motion
3.6806 °/min
Orbital period
97.81 mins
BSTAR
0.00042116
Loading maneuver chart data...
Computing Atmospheric mass density...
Loading historical data...
Loading historical data...
Loading historical data...
Loading historical data...
Loading historical data...
Loading historical data...
Loading historical data...

Documentation

Showing up to 5 results
|